GFSSE_sfc_wetblb_159.txt.gz
Wetbulb
74.62 77.45 78.80 78.47 78.07 77.91 77.68 77.48 77.00 76.67 76.53 76.32 76.65 76.55 76.77 76.48 76.60 76.93 77.01 76.58 76.66 76.90 76.53 76.60 76.23 75.83 75.52 74.90 74.18 74.38 74.67 74.74 74.54 73.80 73.89 74.00 73.75 73.62 74.01 73.95 73.85 71.01 71.94
75.63 77.23 78.34 77.99 77.81 77.74 77.53 77.25 76.97 76.57 76.47 76.52 76.42 76.37 77.09 77.05 76.95 76.80 76.85 76.90 76.91 77.16 76.74 76.28 75.64 75.36 75.03 74.34 74.18 74.00 73.88 74.17 74.62 74.10 73.54 73.52 73.43 73.03 72.96 73.01 72.94 71.34 71.77
74.97 76.84 78.04 77.89 77.81 77.69 77.38 77.08 76.87 76.49 76.59 76.39 76.39 76.32 77.12 77.12 77.10 76.77 76.90 77.03 77.16 77.43 76.66 76.04 75.69 75.18 74.52 74.14 73.74 73.73 73.69 74.02 74.19 73.84 73.46 70.96 70.58 72.56 72.48 72.04 72.25 71.88 71.65
75.18 75.64 77.17 78.01 77.56 77.74 77.33 76.84 76.54 76.62 76.52 76.27 76.34 76.47 77.02 76.92 77.05 76.97 76.98 77.11 77.18 77.00 76.38 76.12 75.60 74.91 74.13 73.76 73.55 73.44 73.62 73.76 73.98 73.70 72.65 72.75 70.23 72.82 72.91 72.82 72.46 72.01 71.95
74.19 75.65 77.30 77.98 77.58 77.56 77.15 76.74 76.43 76.34 76.32 76.32 76.27 76.62 76.77 76.82 76.89 76.82 76.80 76.86 77.08 76.43 76.25 75.75 74.97 74.45 73.97 73.60 73.34 73.83 74.00 74.20 73.85 73.71 71.99 72.03 70.06 73.61 74.18 73.87 73.01 73.15 73.32
73.78 76.25 77.50 77.67 77.35 77.20 77.00 76.77 76.46 76.29 76.29 76.49 76.39 76.52 76.70 76.57 76.56 76.37 76.62 76.53 76.48 75.75 75.06 74.70 74.24 74.10 73.69 73.25 73.08 73.65 73.75 73.87 73.60 71.14 71.46 72.14 71.09 75.01 74.85 74.43 74.12 75.17 74.35
73.95 76.23 77.13 77.47 77.30 77.12 77.10 76.84 76.51 76.24 75.89 76.38 76.27 76.32 76.77 76.38 76.41 76.32 76.27 76.05 75.77 75.22 74.27 73.91 74.07 74.18 73.85 73.30 72.95 73.48 73.60 73.51 72.22 71.45 71.99 72.97 72.35 73.83 74.98 75.03 74.79 74.88 75.10
74.61 75.82 76.61 77.63 77.19 76.82 76.75 76.62 76.24 75.83 75.96 76.20 76.08 76.41 76.68 76.33 76.22 76.24 76.04 75.98 75.78 75.20 74.60 74.07 74.15 73.87 73.53 73.63 73.58 73.26 73.41 72.88 71.80 70.61 70.09 68.97 71.76 73.25 74.54 75.05 74.77 74.57 74.98
74.78 74.60 75.64 76.51 76.77 76.92 76.43 75.95 75.86 75.62 75.84 75.86 75.51 75.89 75.99 76.07 76.13 76.18 76.06 75.76 75.42 74.87 74.45 74.25 73.85 73.58 73.20 73.03 72.74 72.51 72.68 73.01 69.89 69.67 70.88 72.88 75.40 75.95 75.49 76.08 75.90 76.05 75.30
74.08 73.84 74.64 75.41 75.32 76.02 75.78 76.13 75.83 75.77 75.76 75.27 75.45 75.62 75.78 75.89 75.99 75.76 74.98 75.10 75.01 74.44 73.92 73.50 72.93 72.66 72.44 72.27 72.22 72.22 72.54 72.83 68.02 66.83 71.70 73.77 75.12 74.94 74.67 74.63 74.90 75.42 75.17
73.78 72.85 73.34 74.46 74.51 74.85 74.98 75.84 75.97 76.13 75.71 75.35 75.45 75.41 74.48 74.29 74.28 74.71 74.46 75.09 75.00 74.33 73.64 73.05 72.66 72.44 72.27 72.39 72.71 72.79 72.69 68.16 65.28 66.09 71.77 74.82 74.95 74.24 73.52 73.11 73.38 73.30 73.02
72.24 71.54 72.25 72.82 73.03 73.75 75.10 74.35 74.41 74.35 74.27 73.82 73.86 73.87 72.19 72.52 71.56 73.03 74.16 75.02 74.64 73.96 73.45 72.98 72.68 72.51 72.49 68.77 67.74 71.50 69.47 68.13 65.19 69.18 71.35 74.40 74.50 73.81 72.97 72.03 71.49 71.27 71.15
72.51 71.72 71.85 71.54 71.21 71.31 73.05 73.26 73.46 73.23 72.88 72.29 72.63 71.88 69.25 71.29 71.44 70.93 72.32 72.46 70.78 72.81 69.79 71.16 70.62 70.55 68.86 68.08 67.26 66.20 66.49 66.16 68.54 70.06 71.20 73.51 73.90 72.99 71.84 70.68 70.66 70.83 71.08
71.70 71.53 71.49 71.23 70.40 70.42 72.34 71.60 71.80 71.37 70.90 69.78 70.64 70.26 68.06 69.47 69.08 70.93 70.40 69.68 68.90 68.48 68.26 67.63 67.57 67.73 67.15 67.42 67.69 68.83 68.75 69.92 69.78 69.58 70.23 72.81 71.99 71.99 70.41 70.40 70.17 70.08 70.38
71.77 71.32 70.98 71.04 70.07 70.33 70.19 69.68 69.71 69.00 69.13 68.69 69.87 69.44 68.88 69.29 69.17 70.55 70.03 69.05 68.45 67.87 67.47 67.15 66.84 67.46 67.56 69.04 71.83 71.82 70.71 70.80 69.90 69.99 68.25 71.55 71.28 71.15 70.14 69.21 68.70 68.07 67.88
72.26 71.58 71.29 70.72 70.50 70.25 68.37 68.86 68.85 68.69 68.08 68.28 69.72 68.29 69.09 69.81 69.33 69.07 69.90 68.05 67.07 67.47 67.90 68.15 68.28 68.64 70.33 71.51 71.06 71.54 71.16 70.82 69.65 68.59 67.47 68.16 70.83 70.25 69.75 67.69 66.81 66.14 65.88
72.64 72.34 71.32 71.03 71.50 69.62 68.47 69.29 69.13 68.77 68.49 68.42 69.58 67.86 68.78 70.36 69.79 69.15 70.00 68.00 68.27 69.42 69.20 72.04 72.05 71.60 70.89 70.42 70.53 71.40 69.61 70.77 70.44 67.05 66.74 66.50 68.95 69.66 68.17 67.57 65.61 64.86 64.19
73.28 71.92 71.82 72.07 72.08 70.29 69.45 70.28 70.34 69.59 69.49 69.60 69.83 68.77 68.58 71.11 70.69 69.54 68.98 67.58 69.02 71.35 72.36 72.03 71.29 69.67 69.66 69.47 69.60 70.07 69.47 67.89 66.25 65.20 66.17 66.58 66.67 65.61 66.60 67.00 66.80 65.77 63.96
71.46 72.55 71.59 71.91 72.36 71.21 70.34 70.81 71.35 70.83 70.57 70.91 70.43 69.09 68.55 71.82 70.85 69.44 68.10 67.10 71.38 72.26 70.67 70.88 71.34 69.43 68.88 67.91 67.32 68.58 66.37 65.42 63.40 65.93 64.31 63.93 64.65 64.06 62.52 65.83 67.01 67.35 65.62
69.00 73.27 73.20 73.33 72.24 72.51 71.07 70.31 71.85 71.54 70.98 71.38 70.75 69.88 70.84 71.33 70.79 68.63 67.39 71.14 73.13 71.84 69.78 69.70 69.44 69.13 67.62 66.35 67.01 66.31 65.27 63.25 62.45 63.86 62.77 63.78 63.36 62.97 62.81 62.56 63.36 63.23 66.87
61.83 72.26 72.44 72.60 72.48 72.71 71.46 69.82 70.95 71.10 70.29 70.30 70.80 70.33 70.63 71.14 69.92 68.78 71.64 71.88 70.89 69.34 69.14 68.95 68.99 66.80 65.27 64.29 63.59 61.32 64.00 62.59 62.00 63.60 63.86 62.80 64.01 63.65 63.94 63.11 62.80 60.87 63.23
55.51 71.84 72.21 72.37 72.14 71.55 72.53 71.35 71.21 70.99 69.17 70.52 71.12 70.74 70.48 70.71 69.59 69.81 71.46 71.08 70.78 69.58 69.33 68.71 67.79 65.50 64.83 62.65 58.91 59.70 57.73 60.26 62.75 63.14 63.43 63.70 64.50 64.09 64.15 63.33 61.25 60.97 59.38
54.77 68.99 72.17 72.24 72.15 72.17 72.44 71.32 71.04 71.12 69.27 70.29 69.88 69.99 70.09 70.66 69.68 71.99 71.54 71.28 70.52 69.58 67.51 66.54 66.01 64.75 62.71 62.09 62.13 59.44 55.20 55.29 57.10 61.08 63.76 64.91 64.13 63.63 62.28 61.33 58.87 58.38 58.47
55.18 61.06 72.42 72.70 72.65 72.65 72.51 71.98 70.28 69.91 69.18 69.88 69.56 69.96 70.19 69.91 70.94 72.38 71.74 70.99 69.41 68.29 66.77 64.64 64.24 62.97 62.31 60.97 62.39 63.27 61.50 59.55 55.03 54.09 57.29 56.80 56.59 56.36 55.73 56.13 54.45 54.53 55.88
57.16 57.20 71.94 73.06 72.98 72.83 72.37 72.21 71.11 69.99 69.54 70.16 69.62 69.54 69.07 68.48 71.70 72.24 70.45 68.99 67.83 66.44 64.42 63.73 63.77 63.30 62.93 61.55 60.46 59.59 57.31 56.92 55.02 53.89 51.20 52.06 53.29 53.55 53.78 54.60 53.29 52.84 54.96
54.87 60.18 72.73 72.74 72.77 72.88 72.63 71.69 71.53 70.31 68.92 69.40 69.22 68.44 68.29 70.30 70.41 69.26 68.26 66.89 66.32 65.70 64.24 63.45 63.55 62.77 61.19 59.10 57.97 57.24 56.75 53.87 52.00 51.15 49.15 48.56 48.40 50.33 51.51 51.92 52.68 52.76 53.67

GFSSE_sfc_wetblb_162.txt.gz
Wetbulb
74.14 77.33 78.39 78.26 78.01 77.89 77.41 76.79 76.73 76.65 76.30 76.18 76.63 76.63 76.35 76.40 76.63 76.46 76.56 76.28 76.56 76.66 76.31 76.22 75.74 75.44 74.82 74.20 73.69 73.96 74.27 74.29 74.03 73.78 73.57 73.65 73.85 73.56 74.27 73.42 72.09 70.81 71.60
75.10 77.58 78.16 78.04 77.89 77.71 77.21 76.86 76.43 76.25 76.10 76.05 76.35 76.25 76.25 76.60 76.68 76.43 76.46 76.68 76.76 76.91 76.34 75.83 75.58 75.17 74.41 73.84 73.46 73.68 73.74 73.87 74.47 73.84 73.67 73.16 72.89 73.31 74.01 73.30 72.13 71.31 71.56
75.58 77.40 77.49 77.78 77.79 77.48 77.13 76.60 76.30 76.12 76.02 75.78 76.37 76.52 76.55 76.68 76.55 76.68 76.63 76.83 77.19 76.38 75.96 75.55 75.23 74.64 73.93 73.53 73.52 73.52 73.67 73.53 74.17 73.82 72.70 70.20 70.01 72.20 72.67 72.79 72.06 71.65 71.22
75.96 77.02 76.82 77.73 77.63 77.33 76.92 76.35 76.32 76.12 75.87 75.90 76.66 76.74 76.92 76.54 76.50 76.67 76.75 77.24 77.26 76.27 75.94 75.59 75.16 74.45 73.72 73.45 73.31 73.50 73.85 74.00 74.15 74.03 72.05 72.40 70.13 72.06 72.24 72.46 72.01 71.70 71.44
75.57 76.56 76.69 77.58 77.30 77.23 76.90 76.42 76.17 75.92 75.75 76.00 76.89 76.74 76.72 76.41 76.56 76.46 76.68 76.81 76.78 76.09 75.89 75.51 74.77 73.92 73.49 73.15 72.83 72.86 73.36 73.58 73.48 72.50 71.01 71.50 71.50 72.38 73.97 73.72 72.36 72.60 72.80
74.50 76.12 77.30 77.35 77.12 76.95 76.85 76.44 76.02 75.87 75.85 75.82 76.61 76.79 76.51 76.56 76.35 76.36 76.50 76.76 76.71 75.94 75.69 74.64 73.85 73.50 73.16 72.68 72.44 72.51 72.91 73.07 73.20 71.18 71.15 71.45 70.17 73.91 75.55 74.26 73.51 74.24 73.68
73.86 76.00 77.01 77.20 76.99 76.95 76.93 76.62 76.12 75.79 75.76 75.62 76.41 76.69 76.24 76.16 76.06 76.24 76.27 76.10 76.06 75.19 74.22 73.77 73.58 73.43 73.01 72.19 71.81 72.39 72.71 72.52 70.69 69.78 69.51 71.32 71.44 73.93 74.57 74.19 74.24 74.23 74.11
73.99 75.84 76.50 77.23 76.79 76.51 76.72 76.27 75.84 75.61 75.83 75.62 76.03 76.22 76.04 76.02 75.86 75.89 75.69 75.68 75.38 74.78 73.93 73.51 73.48 73.04 72.93 72.64 72.57 72.74 72.61 71.88 70.60 69.13 68.51 68.65 71.90 73.08 74.15 74.75 74.88 74.73 74.31
75.08 75.27 75.98 75.97 76.55 76.67 76.23 75.88 75.53 75.33 75.49 75.20 75.41 75.60 75.45 75.59 75.60 75.70 75.35 75.46 75.19 74.79 74.44 73.77 73.26 72.93 72.68 72.49 72.39 72.20 72.27 71.63 68.06 67.79 69.87 71.33 74.35 74.95 74.92 74.91 75.13 75.13 74.80
74.18 74.74 74.85 74.79 74.86 74.75 75.31 75.95 75.30 75.25 75.51 75.20 75.50 75.50 75.36 75.71 75.49 75.64 74.68 75.08 74.85 74.33 73.99 73.34 72.95 72.71 72.19 71.92 71.82 71.83 72.04 71.21 65.91 65.26 71.24 73.27 74.87 74.40 73.65 73.98 73.98 73.84 73.49
73.24 73.58 74.34 73.85 73.79 73.84 74.26 74.93 75.32 75.71 75.56 75.32 75.36 75.50 74.33 73.98 74.18 74.55 74.30 74.91 74.42 73.98 73.39 72.80 72.36 72.02 71.80 71.87 72.22 72.29 71.29 67.36 65.20 64.52 71.01 74.59 74.32 73.39 72.55 72.46 72.39 71.90 71.68
71.58 72.29 73.45 73.48 73.31 73.62 73.94 74.01 73.79 73.80 73.90 73.65 73.61 73.76 73.51 72.80 72.67 73.27 74.17 74.71 74.42 73.95 73.30 72.83 72.34 71.94 71.65 68.26 66.46 68.96 67.72 67.46 65.67 67.16 71.63 74.45 74.08 72.97 71.66 71.36 70.90 70.68 70.41
71.45 71.97 72.53 73.06 73.49 73.47 73.56 72.87 73.45 72.54 73.00 73.04 73.13 72.81 70.90 71.56 72.36 71.01 71.74 72.52 70.97 72.63 69.28 70.56 69.68 69.32 68.43 67.42 66.50 65.56 65.95 65.42 66.44 69.13 72.24 73.73 73.90 72.45 70.83 70.61 70.70 70.49 70.72
71.05 71.07 71.75 72.59 72.87 72.85 72.94 72.25 72.32 71.67 71.89 72.08 72.30 70.56 69.97 69.77 69.46 70.20 71.00 70.02 68.78 68.87 66.76 66.73 66.91 67.01 66.97 67.18 66.15 67.04 67.39 68.46 68.91 68.65 70.49 73.28 72.54 71.61 70.54 70.16 69.72 69.61 68.69
70.38 70.64 70.78 71.32 71.55 72.27 72.01 72.29 72.14 71.58 71.14 71.06 71.48 70.10 68.80 68.44 69.50 69.84 69.36 68.80 67.88 66.75 66.67 66.04 66.05 65.81 65.98 66.24 67.68 69.15 69.54 69.41 69.20 67.66 68.52 72.64 71.43 71.28 70.00 69.02 68.15 67.82 67.64
70.78 70.23 70.44 70.01 70.38 71.80 71.17 70.82 70.71 70.12 70.00 69.35 70.23 69.33 68.50 68.52 69.30 69.32 68.63 68.27 67.09 66.94 66.31 66.45 66.07 65.58 66.38 68.31 69.37 70.74 69.93 70.01 69.53 67.45 66.33 68.06 70.66 70.20 69.63 67.56 66.94 66.59 66.40
66.44 70.99 69.80 69.28 69.47 70.49 69.39 69.39 69.10 68.96 68.44 68.12 69.19 67.87 68.59 68.73 68.36 69.03 69.06 67.50 67.30 67.05 66.46 65.66 66.76 67.92 68.19 70.19 69.14 70.09 69.05 69.12 68.57 67.49 66.87 65.88 68.26 69.47 68.54 68.23 66.74 65.58 65.02
64.19 69.89 70.02 70.29 68.98 69.39 68.22 68.16 67.87 68.11 67.64 67.42 68.57 67.10 67.81 69.14 68.59 68.12 68.80 67.92 67.24 66.73 67.48 68.52 68.46 69.23 67.72 67.68 67.53 67.88 67.72 67.25 64.86 64.00 65.25 65.78 66.22 65.28 67.25 67.82 67.64 66.42 65.42
66.16 69.41 69.31 68.87 68.98 68.32 67.47 67.54 67.54 67.27 66.87 67.52 68.15 67.57 66.34 68.56 70.34 68.86 68.37 67.54 67.83 69.38 70.69 70.53 69.02 68.16 67.00 65.88 66.14 66.07 65.83 64.04 63.19 64.52 63.92 65.27 65.01 64.26 62.23 64.92 67.83 67.83 67.10
64.52 69.81 70.01 69.69 69.01 68.31 69.37 68.78 68.17 67.50 67.23 68.39 68.37 68.15 65.95 68.19 70.24 69.20 67.40 66.67 69.90 70.12 68.76 68.96 68.12 67.45 65.98 64.46 65.24 64.62 63.71 61.95 61.38 62.10 62.07 62.64 62.34 62.92 62.18 62.45 61.98 63.63 67.93
58.64 69.03 69.87 69.31 70.06 69.11 68.93 68.94 68.60 67.09 67.72 68.60 68.70 68.63 67.05 68.82 69.62 67.80 66.33 70.35 70.28 69.11 67.83 67.92 66.69 64.55 63.19 62.39 60.38 58.12 62.09 61.67 61.38 63.22 63.47 61.49 62.62 63.96 62.99 63.87 61.27 59.74 60.05
54.22 68.86 70.49 69.78 70.09 69.19 69.11 70.37 69.77 69.99 69.30 70.13 69.33 68.62 68.28 69.89 69.14 68.32 69.78 69.39 68.69 68.24 67.63 67.83 66.20 64.21 61.84 60.38 56.24 57.59 55.37 59.21 59.62 61.88 61.82 62.71 61.25 60.85 60.24 58.50 56.56 57.01 57.63
49.61 67.11 70.71 70.06 70.38 69.66 69.32 68.22 69.70 71.14 69.85 68.96 68.92 68.41 69.11 69.97 69.20 70.82 70.69 69.56 68.82 68.53 67.05 66.17 65.04 62.90 59.77 60.48 60.07 56.87 53.50 53.01 55.41 58.27 57.38 56.15 54.96 54.01 54.86 54.61 54.04 55.52 56.55
49.25 60.06 69.83 70.87 70.47 68.92 68.90 66.98 67.31 68.26 68.20 69.39 69.05 69.14 69.30 69.33 69.14 71.22 70.43 69.79 68.84 66.88 65.81 64.90 63.95 63.22 60.79 59.52 59.74 60.60 59.12 57.62 53.80 53.32 54.18 52.94 53.08 52.37 51.84 52.78 52.21 54.52 54.87
49.91 50.69 65.79 70.82 70.11 69.11 68.74 67.80 66.15 65.47 68.44 69.46 69.31 68.43 69.09 68.11 70.73 71.12 70.23 68.37 66.66 66.06 63.52 62.51 62.50 61.73 60.87 59.56 58.49 57.15 54.77 53.17 53.40 51.22 49.10 49.11 50.17 50.53 50.44 51.08 51.08 51.59 51.89
48.79 50.64 60.43 69.90 69.90 69.81 69.53 68.80 67.52 67.37 68.60 68.26 67.89 67.68 67.99 69.08 70.44 70.13 69.00 67.25 65.32 63.55 63.23 62.52 61.82 59.58 57.76 56.57 56.11 56.12 53.13 51.02 49.67 48.91 47.24 46.64 46.09 47.35 48.78 50.55 49.52 48.84 45.86

GFSSE_sfc_wetblb_165.txt.gz
Wetbulb
73.58 76.67 78.21 77.84 77.79 77.19 76.84 76.41 76.53 76.43 76.73 76.78 76.86 76.73 76.66 76.38 76.43 76.41 76.23 76.53 76.66 76.56 76.09 76.07 75.59 74.93 74.11 73.61 73.65 73.89 73.94 74.16 73.61 73.49 74.00 74.21 73.93 73.81 73.59 73.17 71.79 70.50 71.39
74.61 76.87 77.57 77.93 77.66 77.14 76.86 76.61 76.53 76.25 76.30 76.40 76.53 76.40 76.40 76.33 76.33 76.06 76.21 76.36 76.59 76.28 75.94 75.56 75.23 74.67 73.96 73.61 73.45 73.62 73.80 73.82 74.40 73.70 73.54 73.61 73.45 73.88 74.19 72.23 71.74 70.81 71.32
75.33 76.43 76.55 77.67 77.58 77.08 76.73 76.45 76.25 75.94 76.04 76.20 76.10 76.35 76.20 76.18 76.26 76.13 76.28 76.63 76.91 75.97 75.61 75.35 74.87 74.28 73.57 73.43 73.51 73.27 73.28 73.53 73.62 73.36 72.45 69.30 69.20 72.67 73.00 72.49 71.75 71.50 71.28
75.62 76.14 76.05 77.53 77.50 76.96 76.48 76.30 75.92 75.74 75.77 75.87 76.05 76.37 76.42 76.23 76.15 76.18 76.65 76.96 76.56 75.69 75.61 75.31 74.77 73.93 73.28 73.32 73.49 73.73 73.93 74.05 74.12 73.88 71.44 71.40 69.71 71.94 71.72 71.78 71.68 71.57 71.34
75.29 75.87 76.21 77.50 77.20 76.93 76.45 76.09 75.69 75.52 75.62 75.75 76.22 76.40 76.25 76.25 76.14 76.32 76.85 76.98 76.25 75.82 75.54 75.21 74.61 73.59 73.06 72.84 72.93 73.34 73.66 73.62 72.94 71.70 69.73 70.69 70.85 71.99 72.66 72.66 72.24 72.12 72.17
75.10 75.63 77.07 77.22 77.07 76.85 76.60 76.12 75.82 75.32 75.87 76.04 76.44 76.32 76.04 76.16 75.95 76.06 76.40 76.56 76.28 75.69 75.47 74.90 73.63 73.11 72.76 72.40 72.26 72.61 72.96 72.86 72.37 70.17 70.03 70.32 70.93 73.44 74.27 73.96 73.65 73.79 73.83
74.48 75.28 76.27 76.67 76.82 76.82 76.50 76.02 75.82 75.30 75.94 76.31 76.29 76.17 76.07 76.11 76.08 76.16 76.37 76.55 76.36 75.68 74.90 73.50 73.16 72.79 72.49 72.06 71.83 72.01 72.68 71.96 69.71 68.20 68.34 69.65 70.06 73.51 74.14 73.96 73.72 73.48 73.61
74.26 75.38 75.43 76.60 76.52 76.38 76.37 76.19 75.52 75.12 75.71 76.08 76.03 75.92 76.02 75.98 75.98 76.06 76.09 76.10 75.68 74.53 73.60 73.18 72.91 72.39 72.27 72.12 71.75 71.92 72.11 71.75 69.71 67.81 67.63 68.94 72.24 72.95 73.14 73.95 74.18 72.77 73.29
74.62 74.87 75.08 75.38 75.43 76.44 76.21 75.68 75.46 74.94 75.08 75.62 75.59 75.28 75.65 75.78 75.65 75.57 75.35 75.31 74.79 74.40 74.05 73.31 72.74 72.25 71.87 71.73 71.58 71.55 71.67 70.94 66.62 65.83 69.13 69.93 74.13 74.81 73.50 73.23 73.73 73.65 73.70
73.74 74.26 74.20 74.63 74.59 74.23 74.93 75.75 75.50 75.20 74.90 75.23 75.38 75.35 75.22 75.65 75.47 75.29 74.49 74.68 74.36 74.02 73.48 72.86 72.44 71.87 71.78 71.68 71.48 71.43 70.79 69.81 63.73 63.90 70.93 73.07 74.40 74.25 73.60 73.14 72.72 72.42 72.02
72.71 73.27 73.72 73.78 73.52 73.78 73.81 74.72 75.19 75.39 75.02 75.27 75.31 75.25 74.20 73.09 73.35 74.03 73.99 74.96 74.13 73.42 73.00 72.49 72.02 71.70 71.23 70.94 71.68 71.43 70.46 66.21 64.46 63.90 70.49 74.34 74.20 73.40 72.43 71.67 71.03 70.76 70.62
71.18 72.39 72.97 72.80 72.88 73.06 73.26 73.55 73.03 73.29 73.51 73.28 73.56 73.47 72.62 72.68 71.74 73.09 73.69 74.44 73.78 73.20 72.66 72.29 71.82 71.50 70.82 66.92 65.58 67.74 66.31 66.25 65.23 64.81 70.93 74.34 74.15 72.82 71.47 70.64 70.43 70.49 70.45
71.51 71.81 72.43 72.37 72.57 72.17 72.55 72.53 72.82 72.14 72.63 72.56 72.82 72.99 72.41 72.18 71.85 71.51 71.24 71.96 70.76 72.65 69.36 70.21 68.98 68.14 66.89 66.26 65.55 64.30 65.27 65.34 65.29 69.62 72.18 74.10 73.56 72.54 70.60 70.20 70.14 70.57 70.42
71.53 71.46 71.89 72.26 71.92 71.98 72.59 71.94 72.19 70.91 71.14 71.17 71.31 71.58 70.90 70.80 70.32 69.73 70.47 69.70 68.87 68.80 66.66 66.42 66.17 65.97 65.86 66.50 65.16 65.28 65.97 66.09 68.73 69.53 71.31 73.63 73.08 71.57 70.33 69.46 69.63 68.95 68.11
70.95 71.54 71.60 72.21 71.76 72.20 71.70 71.55 71.55 70.66 70.86 70.86 71.03 70.83 70.76 69.73 69.61 69.34 69.30 68.96 67.78 66.90 65.58 64.57 64.86 64.22 64.31 65.08 65.76 66.90 68.45 68.03 67.92 68.21 67.94 73.23 71.77 71.55 69.82 69.07 68.12 68.03 67.79
70.77 70.90 71.18 71.76 72.16 72.11 71.35 71.18 71.18 70.74 70.89 70.84 70.93 70.19 69.44 68.66 68.96 68.66 68.01 68.19 66.88 66.00 65.61 64.75 64.86 64.43 64.55 65.84 66.70 69.34 69.80 68.33 67.38 66.73 66.24 68.82 70.88 70.47 70.12 68.28 67.40 66.73 67.08
68.95 70.77 69.85 70.45 70.95 70.84 70.09 71.00 71.28 71.22 70.50 69.88 69.75 69.32 68.56 67.93 68.39 68.62 67.78 67.20 66.86 66.35 65.55 64.64 65.29 66.01 65.34 67.52 68.10 69.72 69.45 68.57 68.28 66.78 65.83 65.53 68.00 69.81 69.32 68.84 67.90 66.22 65.98
59.79 67.62 70.01 71.03 70.43 70.24 69.77 70.04 69.90 69.90 69.19 68.87 69.13 68.35 68.27 68.49 67.66 67.79 67.97 67.60 66.96 65.75 65.48 64.99 64.48 65.40 66.98 67.01 66.88 66.91 66.59 66.80 66.10 64.57 65.40 65.51 65.93 65.34 67.57 68.54 68.63 66.79 65.72
54.48 59.15 68.35 69.78 68.91 69.65 68.14 67.45 66.82 67.81 67.73 67.67 68.18 67.26 67.33 68.38 68.40 67.88 67.88 67.83 66.73 65.80 66.04 65.85 67.25 67.29 66.46 65.22 65.41 65.97 64.16 63.25 62.73 63.83 64.65 65.03 64.51 64.25 62.08 63.45 67.35 68.28 67.82
52.79 60.52 68.14 68.63 67.74 68.27 67.31 67.29 66.50 66.07 66.12 66.84 67.39 67.07 66.04 67.67 69.31 67.84 66.99 67.08 66.66 67.58 67.94 68.33 67.05 66.19 65.17 64.09 64.39 62.81 62.33 61.06 61.57 61.03 61.05 61.81 62.25 62.17 61.43 62.03 62.29 62.47 66.17
52.30 64.08 67.02 67.37 67.07 67.02 66.96 66.35 66.24 64.98 65.55 65.76 66.58 67.28 64.83 66.56 68.38 68.67 67.71 66.15 67.83 68.73 68.28 68.17 66.35 64.13 61.64 61.96 59.40 58.59 60.54 60.75 60.28 61.77 61.05 61.37 60.62 60.51 56.50 56.18 57.50 57.08 59.56
51.83 63.32 67.00 67.84 67.08 67.13 67.29 67.17 67.26 66.68 66.73 67.18 67.25 67.41 65.66 65.38 67.50 68.87 68.18 68.08 68.86 67.90 67.13 66.51 64.75 63.13 60.40 58.98 55.51 56.63 55.34 58.57 57.81 57.30 55.71 54.84 54.00 55.51 54.46 54.36 55.45 57.77 57.31
51.92 61.81 67.45 68.32 67.75 67.39 67.97 68.16 68.80 68.84 68.48 68.06 67.65 67.27 66.93 65.80 67.46 68.67 68.24 69.49 68.48 68.46 67.22 66.46 64.60 62.64 59.21 59.69 58.25 55.81 52.50 53.67 54.63 56.54 53.29 51.93 51.61 52.29 52.49 54.07 54.85 55.04 54.05
46.30 59.26 68.21 68.77 68.28 67.84 68.42 67.89 67.24 67.76 66.03 67.35 68.64 68.24 67.66 67.08 67.93 69.15 69.52 69.35 68.75 67.38 66.37 65.07 63.84 61.60 59.86 59.19 57.55 58.71 56.52 56.77 53.46 52.68 53.12 51.00 51.08 50.99 49.84 49.84 48.50 48.92 48.63
46.11 53.71 66.74 68.76 68.88 68.49 68.00 67.78 66.59 67.15 68.13 68.00 68.17 68.27 67.83 67.69 68.12 69.97 69.80 68.97 67.58 66.27 64.00 63.13 62.03 60.91 60.46 59.33 56.72 54.33 53.18 52.34 54.33 51.89 49.33 48.38 48.19 48.43 48.66 47.78 46.90 44.48 45.20
46.06 46.93 57.03 68.61 68.82 68.48 67.86 67.60 66.14 66.26 67.29 67.91 67.71 67.42 67.40 67.63 68.30 69.77 69.37 68.10 65.49 63.25 62.66 61.80 60.38 59.36 57.55 56.39 55.53 54.34 53.40 51.96 49.64 48.58 46.88 45.50 44.92 45.51 47.59 44.72 43.58 43.38 42.60

GFSSE_sfc_wetblb_168.txt.gz
Wetbulb
72.90 76.35 77.30 77.78 77.47 76.92 76.90 76.97 77.10 77.29 77.24 77.39 77.57 77.24 76.89 76.59 76.37 76.61 76.66 76.47 76.67 76.69 76.32 76.00 75.44 74.73 74.08 74.07 74.29 74.10 74.58 74.32 73.72 74.08 74.51 74.47 74.25 73.55 72.56 72.13 71.88 70.71 71.82
74.46 76.28 77.10 77.57 77.37 77.02 76.77 76.82 76.62 76.77 76.99 76.96 76.99 76.74 76.34 76.19 76.32 76.21 76.47 76.59 76.77 76.54 75.92 75.69 74.95 74.27 73.66 73.59 73.79 73.72 73.77 74.05 74.42 74.19 74.23 74.03 74.03 74.01 73.51 72.13 71.62 71.07 71.59
75.10 76.41 76.74 77.39 77.32 77.05 76.74 76.52 76.41 76.38 76.61 76.61 76.61 76.39 76.34 76.16 76.04 76.29 76.46 76.56 76.77 75.95 75.61 75.23 74.70 74.08 73.60 73.60 73.70 73.75 73.83 74.01 74.56 73.78 73.68 71.35 71.59 73.51 73.71 72.39 71.60 71.57 71.57
75.11 75.93 76.44 77.31 77.09 77.07 76.69 76.23 76.21 76.23 76.33 76.43 76.28 76.19 76.21 75.99 75.94 76.24 76.46 76.84 76.69 75.82 75.41 75.02 74.23 73.49 73.38 73.44 73.34 73.37 73.58 73.65 73.74 73.02 71.31 70.26 70.22 72.39 72.39 72.21 71.56 71.27 71.10
74.60 75.13 76.07 77.24 76.89 76.84 76.39 76.10 75.80 75.98 75.93 76.05 76.26 76.09 76.06 75.88 75.88 76.11 76.56 76.87 76.41 75.59 75.41 75.08 74.15 73.32 73.23 73.37 73.79 74.22 74.52 74.69 74.21 73.28 71.68 72.33 72.49 72.33 72.53 72.22 72.15 72.07 72.32
74.46 74.98 76.86 77.05 76.71 76.51 76.41 76.03 75.75 75.67 75.73 75.86 76.21 75.96 75.91 75.91 75.83 76.22 76.58 76.61 76.57 75.75 75.35 74.90 73.70 73.23 72.92 72.66 73.17 73.42 73.17 73.15 72.12 70.87 70.66 70.86 72.45 73.37 73.82 73.39 73.82 74.23 74.12
74.14 75.09 76.36 76.87 76.61 76.51 76.24 75.91 75.80 75.53 75.70 75.83 76.00 76.06 75.96 75.88 76.01 76.44 76.60 76.59 76.49 75.69 75.29 73.98 73.34 73.15 73.22 72.64 72.33 72.65 72.59 72.12 70.68 69.41 70.44 71.21 72.08 73.25 74.17 73.51 73.57 73.69 73.62
73.78 75.00 75.41 76.68 76.57 76.25 76.16 75.78 75.47 75.40 75.52 75.74 75.74 75.80 75.83 75.67 75.87 76.06 76.30 76.40 76.16 75.69 74.06 73.24 72.82 72.45 72.62 72.53 72.18 72.11 72.14 71.44 69.34 68.37 69.99 71.98 72.80 73.28 73.09 73.96 74.11 73.89 73.52
74.42 74.33 74.74 75.30 75.87 76.25 75.99 75.59 75.17 75.44 75.44 75.53 75.43 75.19 75.49 75.68 75.88 75.93 76.01 75.94 75.42 74.58 73.96 73.39 72.75 72.45 72.38 72.20 71.81 71.64 71.50 71.11 67.01 68.47 70.07 71.31 74.07 74.41 73.67 73.76 73.59 73.12 72.75
74.11 73.97 73.98 74.10 74.53 74.74 74.82 75.57 75.19 75.43 75.60 75.39 75.32 75.24 75.50 75.67 75.59 75.54 74.57 74.82 74.60 74.25 73.73 73.16 72.57 72.30 71.81 71.39 71.17 71.04 70.90 69.05 65.27 69.47 72.70 73.99 74.21 73.88 73.23 72.60 72.03 71.78 71.24
72.60 73.34 73.49 73.21 73.85 73.29 73.67 74.51 75.13 75.20 75.63 75.44 75.32 75.41 74.55 73.92 74.33 74.51 73.95 74.57 74.42 73.87 73.40 72.84 72.52 71.83 71.02 70.72 70.90 70.86 70.41 67.17 65.96 66.55 72.40 74.21 74.24 73.25 72.16 71.42 70.86 70.55 70.28
70.77 72.35 73.20 73.07 73.04 72.31 73.29 73.17 73.62 73.01 73.85 74.09 73.99 73.95 72.86 72.63 72.74 73.60 73.73 74.55 74.31 73.63 72.87 72.50 72.03 71.37 70.33 67.72 66.73 68.44 68.04 67.57 67.12 66.60 71.64 74.16 74.27 72.49 71.38 70.88 70.47 70.38 70.53
70.97 71.60 72.41 72.67 72.92 72.03 71.81 72.60 72.61 72.66 72.47 72.79 73.20 72.85 72.62 73.11 73.02 72.97 72.15 73.25 72.20 73.01 70.54 71.28 70.16 69.19 68.14 67.35 67.00 66.31 67.04 67.55 67.13 69.60 72.72 74.01 73.69 71.76 70.88 70.46 70.35 70.51 69.94
70.73 71.65 72.26 72.64 72.52 71.93 72.10 71.98 71.83 71.40 71.26 71.68 72.44 72.75 72.24 70.79 71.58 71.50 71.36 71.20 70.27 70.58 68.81 68.22 67.19 67.20 67.18 67.60 66.94 66.97 67.73 68.19 69.40 71.50 73.37 73.59 73.12 71.68 70.60 69.98 69.70 68.79 68.21
70.11 71.26 71.83 72.36 72.10 72.28 71.55 71.86 71.41 70.69 70.64 70.46 70.70 71.12 70.97 69.86 70.05 70.48 70.48 70.25 69.57 68.74 67.72 66.02 65.98 65.80 65.74 66.49 67.40 68.23 68.94 68.48 69.65 69.67 70.85 73.14 72.01 71.81 70.45 69.71 68.75 68.38 68.03
61.79 70.79 71.65 72.00 72.29 72.08 71.93 71.69 71.54 70.69 70.46 70.44 70.21 70.39 70.47 70.15 70.20 69.69 69.40 69.60 68.85 67.77 67.30 65.46 65.39 65.84 66.05 67.36 68.70 69.96 70.62 69.57 69.21 68.57 68.79 71.49 71.04 71.06 70.82 69.62 68.27 67.76 67.91
54.88 69.74 70.75 71.43 72.13 71.88 71.85 71.16 71.28 70.70 70.90 70.30 70.43 70.53 70.18 70.13 69.70 69.55 68.85 68.45 69.05 67.75 66.78 66.40 66.33 67.29 67.29 68.28 69.98 70.62 70.85 69.91 69.01 68.56 68.10 68.79 70.09 70.40 70.06 69.76 68.51 67.08 66.81
54.13 67.48 70.29 71.78 71.62 71.54 71.89 71.40 71.56 71.31 71.02 70.75 70.43 70.06 69.91 69.19 69.36 69.07 68.38 68.11 68.26 67.52 66.98 66.17 65.56 66.59 68.72 68.62 69.04 69.47 69.86 70.10 69.35 68.36 67.96 67.31 68.27 67.58 67.24 67.90 68.20 67.36 66.51
51.68 54.61 67.68 69.70 70.56 70.91 71.33 71.33 71.20 70.76 70.17 69.85 69.56 68.87 68.87 68.97 68.39 68.66 68.41 68.08 68.04 67.10 66.61 66.26 67.34 68.21 68.71 67.84 67.91 67.81 66.59 65.78 65.65 65.73 66.53 66.75 67.02 66.45 64.99 64.26 65.80 67.14 67.31
49.16 50.86 57.00 68.37 69.87 70.30 70.85 70.73 70.07 69.49 69.15 68.38 68.40 68.32 67.88 68.19 68.37 67.56 68.08 68.26 67.92 67.01 66.85 67.69 68.42 67.99 67.68 66.99 65.24 64.16 63.14 63.37 64.19 63.82 63.73 64.05 64.28 62.37 61.81 62.02 61.77 64.54 67.18
50.23 49.91 56.69 66.11 68.00 68.57 67.80 67.80 67.91 67.73 67.75 67.12 67.37 68.20 66.87 67.51 68.78 67.93 67.61 67.42 67.91 68.00 68.09 68.31 68.33 66.56 64.10 64.31 62.58 62.37 61.48 60.01 59.30 59.37 58.99 58.91 58.69 57.24 57.92 59.44 60.54 60.50 60.43
49.16 51.39 61.60 66.34 66.43 67.76 67.74 68.15 68.20 68.22 67.60 67.24 67.03 67.64 66.92 66.37 67.47 68.81 68.19 67.15 67.53 68.58 68.68 68.34 66.90 64.41 62.26 61.35 59.73 60.66 59.47 59.78 57.12 56.10 55.85 55.92 55.49 56.95 57.41 56.93 56.20 55.88 55.85
47.32 49.85 62.13 66.36 66.43 67.25 67.71 67.50 66.49 66.92 66.92 66.06 66.24 66.27 67.14 66.24 66.41 68.21 69.17 68.11 68.16 68.80 68.22 67.84 66.73 64.48 61.69 62.05 60.91 60.10 56.45 57.77 56.15 57.62 54.20 53.34 54.19 52.82 51.65 51.08 50.89 51.41 52.77
45.91 49.76 58.90 66.54 66.68 66.87 67.23 66.45 65.79 64.90 64.44 65.49 65.78 66.63 66.99 66.57 65.45 67.64 68.65 68.99 68.81 68.73 68.29 67.92 66.52 64.97 63.31 61.74 59.89 59.55 58.94 59.57 56.98 53.97 54.58 52.25 52.81 50.76 49.76 48.86 48.50 48.86 50.50
47.25 45.22 52.50 66.07 67.26 66.99 67.06 67.03 66.61 65.40 65.66 66.45 66.12 66.70 66.99 67.15 65.94 67.04 68.49 69.09 68.90 68.60 68.17 67.18 65.30 63.38 63.26 61.91 60.26 57.36 56.15 55.91 56.75 56.76 51.62 49.88 50.69 49.11 47.70 47.76 47.17 46.42 46.89
48.21 47.08 47.28 62.89 67.46 67.39 67.17 67.45 67.03 66.54 66.07 66.09 66.20 66.52 67.08 67.17 66.25 67.18 68.56 69.22 68.80 67.10 66.54 65.83 64.65 62.97 62.47 61.26 58.92 57.83 56.92 56.69 54.50 53.22 50.93 49.89 49.18 49.75 46.30 45.55 45.66 45.35 45.70

GFSSE_sfc_wetblb_171.txt.gz
Wetbulb
74.61 77.92 77.85 77.49 77.34 77.72 78.02 77.92 77.70 77.24 76.84 77.09 77.39 77.01 76.78 76.81 76.71 76.71 76.86 77.11 76.84 76.96 76.61 76.08 75.34 74.96 75.17 74.84 74.67 74.46 74.71 74.42 74.12 74.44 74.07 73.84 73.31 72.76 72.52 72.37 71.90 70.45 71.82
76.23 77.76 77.57 77.12 77.24 77.57 77.77 77.77 77.65 77.47 77.54 77.67 77.59 77.16 76.80 76.66 76.73 76.78 76.94 76.84 76.84 76.98 76.31 75.67 74.78 73.98 73.93 74.22 74.11 74.10 74.20 74.01 74.46 74.74 74.51 74.32 74.02 73.65 72.67 71.69 70.85 71.03 71.62
76.59 77.85 77.59 77.02 76.99 77.27 77.42 77.34 77.26 77.38 77.51 77.41 77.01 76.88 76.53 76.48 76.71 76.66 76.66 76.81 77.09 76.47 76.03 75.28 74.57 73.88 73.66 73.82 73.88 73.86 73.94 73.89 74.19 74.40 74.12 73.84 73.16 74.05 72.91 72.21 71.36 71.36 71.39
77.16 77.91 77.27 77.06 76.74 77.12 77.04 76.78 76.97 77.18 77.13 76.90 76.71 76.46 76.43 76.26 76.36 76.61 76.63 76.89 76.81 76.01 75.61 75.08 74.39 73.83 73.71 73.77 73.94 73.94 74.12 73.82 73.57 73.15 72.21 71.39 71.54 73.17 73.22 72.44 71.75 71.59 71.42
77.07 77.94 77.52 77.09 76.71 76.74 76.79 76.45 76.62 76.80 76.85 76.65 76.66 76.46 76.18 76.18 76.23 76.30 76.71 76.94 76.58 75.85 75.35 74.66 73.85 73.60 73.70 73.60 73.54 73.95 74.07 74.27 74.42 74.43 75.42 75.29 74.32 72.94 72.43 72.23 72.40 72.15 71.95
76.59 77.41 77.24 76.96 76.81 76.56 76.64 76.45 76.39 76.37 76.55 76.35 76.46 76.26 76.16 76.08 76.07 76.20 76.68 76.66 76.56 75.80 75.54 74.64 73.74 73.94 73.74 73.92 74.23 74.56 74.53 73.76 72.84 74.56 73.64 74.22 74.84 74.08 73.38 73.27 73.79 73.60 73.70
75.81 76.83 77.47 76.91 76.63 76.43 76.28 76.13 76.25 76.20 76.19 76.17 76.25 76.06 76.03 75.93 76.14 76.29 76.55 76.53 76.46 76.13 75.42 74.29 73.67 73.88 73.78 73.33 73.43 73.07 72.62 72.65 73.76 73.29 75.21 75.26 75.16 73.36 73.50 72.56 72.85 73.02 72.91
75.78 76.72 77.25 76.59 76.55 76.23 75.90 75.97 75.82 75.71 75.69 76.00 75.75 75.75 75.85 75.82 75.99 76.34 76.52 76.66 76.41 76.24 75.11 73.75 73.14 73.09 73.38 73.36 72.54 72.36 71.99 71.48 70.84 72.41 74.59 75.24 73.26 73.82 73.51 73.55 73.55 73.79 73.76
76.13 76.42 76.67 76.37 76.17 76.23 75.77 75.59 75.56 75.51 75.51 75.46 75.38 75.46 75.54 75.89 76.03 76.30 76.36 76.24 76.08 75.60 74.48 73.91 73.19 72.67 72.84 72.72 72.27 71.84 71.37 71.20 70.76 73.95 74.08 74.55 73.71 74.47 73.71 72.91 72.84 72.42 72.37
75.67 75.95 76.01 75.62 75.72 75.22 75.12 75.66 75.38 75.51 75.52 75.34 75.37 75.57 75.52 75.65 76.00 76.04 75.24 75.67 75.54 74.58 74.03 73.51 72.77 72.27 72.35 72.49 71.98 71.55 70.88 70.16 70.28 73.61 74.49 74.91 74.71 73.78 72.77 72.08 71.50 71.21 70.91
74.26 75.07 75.66 75.37 75.18 75.19 74.75 74.74 75.42 75.30 75.65 75.31 75.42 75.26 74.75 73.51 74.73 75.61 74.74 75.08 74.37 73.88 73.58 72.77 72.47 72.35 71.70 70.93 70.90 70.88 70.84 68.88 68.70 73.04 74.43 74.31 74.41 73.13 71.91 71.14 71.00 70.61 70.20
72.73 73.52 75.10 75.27 74.77 74.83 74.23 74.82 74.09 73.99 74.30 74.21 74.60 74.68 73.64 74.66 75.11 74.70 74.77 74.34 73.95 73.61 73.04 72.35 71.93 71.41 70.58 69.16 69.59 70.41 70.54 70.25 70.41 70.90 74.06 74.53 74.31 72.37 71.46 70.94 70.63 70.44 70.55
73.78 74.05 74.35 75.10 75.45 74.84 73.97 74.43 73.90 73.63 74.05 74.59 74.77 74.66 74.30 74.49 75.15 74.47 73.92 73.41 73.39 73.01 71.65 71.30 70.82 69.95 69.91 69.53 70.11 71.09 72.07 72.21 72.56 71.45 74.27 74.57 73.86 71.98 71.23 70.79 70.74 70.79 70.33
73.61 73.93 74.73 74.69 74.17 74.41 74.47 74.08 73.51 72.95 73.39 73.38 73.83 74.53 73.99 73.86 73.45 73.58 73.03 72.91 73.33 71.97 71.46 71.16 69.83 70.16 70.26 70.50 71.26 71.99 72.02 72.63 72.37 73.53 74.26 74.18 73.53 72.16 71.00 70.58 70.38 69.72 69.06
65.93 74.44 74.85 75.32 74.62 74.58 74.73 74.05 73.55 72.70 72.67 72.78 73.25 74.21 73.56 73.17 72.54 72.41 73.03 72.67 72.40 71.95 71.32 70.35 69.12 69.24 69.67 70.57 71.46 71.81 72.36 72.34 73.19 73.66 74.36 73.90 72.66 72.52 71.03 70.33 69.79 69.16 68.77
58.78 67.06 75.11 74.99 75.15 75.31 74.83 74.74 73.66 73.52 72.97 73.03 72.83 73.32 73.97 72.91 71.94 71.21 72.79 72.48 72.22 71.53 71.09 70.10 68.81 68.93 69.36 71.25 72.32 73.29 73.67 72.68 73.46 73.23 73.64 73.51 71.70 71.80 71.60 70.20 69.29 68.82 68.78
57.94 59.88 66.95 74.62 75.63 75.16 75.09 74.87 74.29 73.67 72.90 72.18 71.96 73.02 73.07 72.79 72.14 72.84 72.10 71.73 71.81 71.92 71.95 70.90 69.53 69.83 70.44 71.77 73.04 74.04 73.81 73.53 73.25 73.27 72.86 73.52 71.62 70.76 70.50 70.04 69.13 68.57 68.04
58.72 59.83 62.58 70.98 74.71 74.82 75.14 74.90 74.46 73.78 73.04 72.46 71.96 72.40 72.39 71.98 71.87 72.22 71.61 71.31 71.91 71.91 71.35 69.87 68.92 69.63 71.18 71.87 73.66 74.22 74.13 73.65 73.00 72.87 72.64 72.11 72.36 71.68 69.26 67.95 67.94 68.18 67.60
59.37 60.26 60.64 70.01 73.67 74.05 75.26 74.90 74.71 74.60 73.67 72.96 72.81 72.26 72.12 71.21 71.65 71.35 71.10 70.95 72.37 71.12 71.39 70.23 69.19 69.87 70.87 72.07 73.13 72.35 71.85 71.96 72.37 71.22 70.95 71.38 71.60 71.20 70.26 66.01 65.86 66.61 67.06
59.45 60.65 60.09 63.74 72.25 74.49 74.33 73.90 73.81 73.57 73.76 74.03 72.62 72.12 72.15 72.03 71.43 71.19 70.67 71.27 71.50 70.12 70.71 70.68 70.20 70.54 71.33 71.85 70.21 67.77 68.27 68.84 69.28 69.18 69.57 69.42 68.40 67.78 67.98 67.19 68.34 67.62 66.44
58.61 61.07 62.10 61.78 69.98 73.19 72.38 70.82 70.57 70.01 71.19 71.40 72.39 72.74 72.36 71.89 71.55 71.45 69.87 70.83 71.07 69.91 71.22 71.61 70.60 71.14 69.78 69.94 67.40 65.21 63.90 64.32 64.48 64.99 66.48 65.21 63.06 63.38 64.56 64.51 64.28 64.49 63.38
57.31 58.84 61.53 62.99 66.62 71.19 72.56 71.06 70.98 70.39 70.61 70.80 71.89 72.73 72.49 71.42 71.65 70.92 70.61 70.03 71.09 70.46 71.68 71.35 71.32 69.62 69.73 69.14 68.17 67.39 62.87 61.39 60.88 61.16 61.77 61.86 61.25 62.16 60.89 58.83 58.75 58.48 58.92
56.21 58.03 60.45 62.91 67.52 69.89 72.84 72.27 71.02 70.45 70.12 69.02 69.34 70.50 71.77 71.42 71.22 71.47 70.86 70.69 71.00 71.43 70.59 72.39 72.16 70.83 68.62 68.07 67.32 67.27 63.45 62.83 59.24 60.19 59.05 60.04 59.61 57.85 57.33 56.51 57.13 57.45 57.57
55.24 56.05 57.71 60.67 66.05 70.12 71.73 70.56 69.14 67.58 66.76 67.62 69.02 71.27 72.08 71.09 70.67 70.85 71.85 70.82 70.88 70.06 71.11 72.09 72.47 71.60 71.50 68.15 65.14 65.89 65.89 66.34 61.57 56.31 58.13 57.85 58.01 56.45 55.74 55.63 54.54 54.04 54.33
57.41 57.54 56.33 57.69 62.90 69.46 70.52 71.33 69.79 69.13 69.08 69.59 69.59 70.27 70.98 71.08 70.25 69.80 70.45 71.19 71.14 70.28 71.30 72.86 72.30 71.19 72.17 69.96 66.79 64.90 63.90 64.82 64.86 62.88 58.01 55.14 56.47 55.60 55.22 54.65 53.01 52.17 51.89
57.44 58.06 58.59 57.92 63.39 67.74 69.67 70.17 70.14 69.75 70.25 68.93 69.39 68.79 69.66 69.98 70.33 70.07 69.52 70.90 72.22 71.98 71.70 72.05 72.08 71.62 68.94 67.32 66.67 66.77 65.47 63.32 62.38 61.58 59.28 58.33 57.22 54.97 54.00 54.52 53.43 50.88 50.22